STARLINK-5494 (55650 NORAD) Tracking and Keplerian Element Data

This shows tracking and keplerian element data for the satellite.

Feedback or suggestion? Click here.




ElementValue
Catalog55650
NameSTARLINK-5494
Epoch Orbit130
Epoch Day62.91667824
Epoch Year2023
RAAN110.1967
Inclination69.9999
Eccentricity0.000348
Argument of Perigee270.0769
Mean Anonmoly328.3586
Mean Motion15.75013864
Decay Rate-0.00972673
L11 55650U 23021Y 23062.91667824 -.00972673 00000+0 -73024-2 0 9998
L22 55650 69.9999 110.1967 0003480 270.0769 328.3586 15.75013864 1304



Live tracking and technical data element details for STARLINK-5494 (NORAD 55650). STARLINK-5494 can be tracked NOW for your location showing map with azimuth and elevation plus other details from your city location.







IsCatalogInMostPopularTable: catalog: 55650, numindb: 2
Update: records affected: 1



GetName: 55650 STARLINK-5494

Hit Count: updated at: Wed, 22 Mar 2023 15:53:07 GMT